Presure
165 112 152 128 135 136 169 142 144 123 162 138 167 137 139 147 173 162 150 180 158 150 143 191 193 179 179 210 186 226 181 239 186 155 215 193 208 143 124 165 188 173 198
141 120 158 121 147 158 156 153 174 118 124 157 171 154 178 144 171 178 152 147 124 153 181 183 141 157 212 200 196 188 219 203 121 214 212 205 200 95 195 213 199 203 196
110 133 126 138 141 164 153 163 169 151 162 177 156 172 144 148 160 135 155 164 166 174 171 156 168 193 190 206 208 178 215 233 228 220 217 203 214 208 208 218 212 206 205
161 150 148 145 148 144 120 148 155 128 167 180 147 128 147 121 149 143 163 155 143 141 172 163 179 142 163 186 195 202 184 173 227 215 188 210 202 210 211 162 205 205 203
133 114 119 127 124 157 163 156 137 141 161 137 164 160 158 180 151 174 126 160 139 170 183 157 144 138 181 192 166 177 196 188 179 213 205 213 211 214 207 202 203 200 194
119 109 148 169 161 126 128 165 160 154 140 149 139 176 172 168 167 148 136 164 165 153 171 156 142 188 162 185 181 191 184 192 193 171 214 204 201 209 203 198 186 202 197
120 116 116 148 145 149 138 132 158 174 179 181 150 172 170 153 175 167 164 152 157 169 137 185 197 152 163 186 180 192 194 196 165 181 198 158 199 208 199 194 194 193 194
134 130 128 90 123 164 150 146 163 172 184 163 170 169 185 124 171 154 177 146 164 185 182 177 193 191 177 185 175 184 185 189 179 188 174 203 186 194 192 191 182 189 206
136 141 143 145 151 150 164 168 137 121 155 175 174 170 167 171 166 177 165 145 172 123 208 197 169 193 167 173 178 199 185 186 175 188 184 181 156 210 170 188 174 180 177
172 171 166 166 117 153 166 174 169 151 187 179 183 162 159 157 160 165 177 173 181 209 212 203 170 168 174 190 175 185 192 187 173 151 176 199 169 175 199 193 179 172 171
159 158 160 158 162 170 170 159 185 171 166 170 168 159 159 164 128 160 158 167 155 177 173 170 172 173 191 180 170 173 182 176 180 183 192 193 181 167 184 162 186 186 184
168 161 162 165 160 171 154 178 171 163 172 171 153 158 147 157 155 167 168 188 182 172 184 185 191 183 181 174 163 172 173 178 188 172 178 179 172 175 162 160 179 176 143
157 165 167 161 174 155 159 179 171 161 156 161 167 162 154 161 172 174 164 181 187 199 180 175 163 176 175 158 169 170 176 178 165 168 172 160 186 182 185 178 178 151 180
166 157 154 172 166 169 158 175 171 179 169 168 152 168 144 171 167 148 181 172 203 179 162 170 185 187 183 180 177 177 165 177 164 203 190 174 172 190 173 192 158 181 168
177 179 160 165 153 160 152 162 172 153 154 150 168 167 171 136 182 168 196 196 202 165 173 161 178 172 197 178 190 191 191 190 183 199 178 182 171 168 176 172 171 181 176
175 184 169 161 141 187 142 174 182 151 162 159 141 133 150 169 162 202 148 171 171 155 174 161 183 182 192 199 187 195 192 194 190 193 185 197 191 169 187 186 180 174 168
181 192 199 161 156 174 176 167 158 155 149 139 158 154 161 156 188 174 160 155 172 145 174 183 178 186 191 194 203 199 198 199 183 185 190 188 194 184 178 187 191 180 179
192 174 188 180 172 165 161 165 177 165 152 162 175 150 140 175 170 181 152 169 171 173 171 184 174 199 208 209 210 200 207 205 186 192 189 195 193 186 186 186 192 192 180
176 184 178 165 155 165 153 155 152 139 142 148 144 150 131 151 172 159 170 184 176 172 185 157 163 192 205 196 219 214 218 202 192 184 195 190 199 197 195 182 188 193 190
179 188 173 158 171 177 161 157 99 132 140 141 159 181 153 152 145 184 179 187 178 185 187 174 194 194 175 190 223 182 196 203 169 183 188 191 196 200 200 190 190 202 191
166 161 163 174 172 178 167 175 177 142 141 200 191 206 152 161 166 183 190 192 176 187 178 153 189 151 155 192 209 166 186 205 179 186 185 201 193 203 177 197 194 186 200
180 178 176 179 173 193 74 74 89 230 202 200 224 189 207 184 122 188 172 174 168 111 201 182 197 193 186 176 200 216 180 191 201 201 189 190 184 195 200 191 198 192 192
170 169 176 183 186 86 218 169 269 223 225 206 205 207 138 188 202 199 150 183 184 189 188 185 193 189 193 155 188 194 159 131 200 195 202 195 188 186 190 195 190 184 202
177 181 179 176 192 76 203 207 223 252 229 204 200 197 200 190 164 106 195 175 184 191 192 191 194 191 191 183 170 156 179 187 172 167 197 196 205 169 180 182 184 193 189
168 177 181 188 239 242 226 209 206 236 239 240 224 205 194 202 206 192 188 188 200 178 187 194 189 181 173 185 179 167 180 187 187 187 180 178 202 199 203 188 157 172 189
181 174 182 225 247 229 218 198 199 211 215 225 224 225 224 222 208 195 205 210 190 183 188 182 184 189 180 175 178 195 198 183 188 185 184 184 181 195 199 176 180 178 187
Wind_Speed
30 32 37 45 50 48 34 41 49 36 39 48 41 48 46 39 42 46 34 39 44 37 39 33 35 35 26 33 27 28 37 28 39 40 36 39 39 51 36 64 56 49 49
45 47 43 44 48 39 42 44 37 37 41 45 41 47 41 50 43 41 51 49 44 52 42 37 27 30 38 35 28 26 25 27 30 33 34 34 36 22 42 41 43 43 48
39 45 47 47 43 35 46 42 41 48 43 44 43 44 51 50 41 42 49 45 46 42 44 45 33 44 42 37 34 30 28 27 29 30 33 32 34 37 38 36 38 42 41
43 45 49 47 45 44 46 50 46 47 46 48 49 44 48 40 50 50 47 46 47 49 46 47 47 34 38 32 32 31 24 23 24 28 37 33 34 33 31 28 37 39 39
45 40 45 48 45 47 53 52 52 54 49 50 49 50 49 46 51 48 47 51 49 48 48 45 42 41 38 36 25 25 27 26 24 25 28 30 29 29 30 32 35 38 40
39 42 52 51 51 46 56 54 52 52 56 52 56 52 49 48 48 52 47 50 49 47 46 46 46 42 38 34 32 31 27 26 27 22 26 28 29 27 29 31 38 34 36
45 43 44 56 58 58 60 58 57 62 60 56 56 53 52 52 53 54 55 49 50 48 45 51 47 40 43 35 33 33 31 28 20 25 24 39 28 26 29 31 32 32 31
60 59 55 40 57 57 60 60 59 61 59 53 53 53 55 44 54 56 56 45 54 63 52 48 43 39 36 37 35 34 32 32 26 26 23 26 24 25 27 30 31 29 28
65 67 70 68 63 64 66 68 58 54 59 55 55 51 51 54 59 66 60 49 58 46 51 47 39 38 39 38 37 37 34 32 30 28 27 23 26 22 25 28 34 29 28
65 63 63 64 62 66 71 68 67 67 56 54 53 58 61 63 64 67 69 64 64 56 46 40 43 42 43 39 38 37 35 33 32 41 26 29 24 27 25 27 29 35 34
69 68 68 69 71 70 68 64 56 59 62 57 55 64 65 63 44 69 69 67 51 61 56 50 51 47 41 41 40 37 35 38 36 31 28 25 32 26 25 29 32 32 36
74 73 73 72 70 68 71 61 60 61 60 61 69 68 61 69 70 74 78 75 71 66 64 59 51 47 44 40 43 41 35 36 36 32 31 30 30 27 31 31 30 34 39
78 74 73 72 68 70 69 60 67 65 71 67 66 67 72 76 78 79 77 79 77 60 56 59 54 58 47 43 46 45 43 39 36 33 31 35 26 32 37 39 36 41 37
79 74 73 68 67 67 72 60 58 56 57 62 76 70 70 77 76 61 81 78 66 63 64 66 61 56 58 53 51 49 45 42 40 37 33 32 31 32 34 31 39 42 41
77 72 71 64 71 69 74 61 57 71 70 79 70 72 78 56 82 80 73 66 55 68 70 61 71 62 66 57 58 54 49 46 43 38 38 40 39 40 41 43 44 43 44
77 74 72 68 70 66 80 53 65 74 65 64 67 64 71 81 84 61 55 78 57 49 81 63 78 75 76 66 61 57 49 43 43 39 36 33 40 43 41 47 47 49 49
81 83 82 74 73 61 59 61 67 72 79 79 75 78 80 84 75 85 62 53 85 36 78 80 78 77 74 69 64 53 49 42 44 40 41 36 38 44 46 46 51 52 54
86 78 84 78 68 57 60 64 75 73 80 81 79 80 76 76 87 74 66 89 90 92 74 82 74 82 75 66 61 54 51 40 45 42 41 43 39 42 45 49 50 53 57
84 86 82 75 70 70 69 70 70 80 82 78 83 85 61 81 82 89 95 85 93 90 96 56 68 74 68 58 57 54 53 42 43 48 43 44 46 42 45 49 52 53 55
85 86 80 75 77 76 74 75 36 78 80 80 88 74 86 79 89 88 95 95 88 96 95 89 92 79 64 55 54 51 48 47 47 50 49 49 51 47 44 48 48 53 57
77 77 77 80 79 80 79 79 79 86 90 75 79 66 74 86 85 89 93 90 84 90 89 62 87 38 46 68 57 53 51 52 54 53 53 54 50 53 48 45 48 50 54
80 79 81 86 81 84 14 20 28 47 60 76 67 69 65 76 41 80 85 82 89 53 87 88 86 78 79 73 77 66 55 53 54 55 56 56 54 55 53 49 50 51 54
83 86 89 95 97 29 88 56 48 47 52 65 68 71 43 67 69 76 61 82 87 93 91 93 85 81 78 55 81 74 66 55 59 56 57 56 56 56 54 57 54 53 56
91 96 95 94 103 30 88 63 63 46 53 60 66 66 66 69 64 40 75 75 84 89 88 90 89 83 81 79 76 69 67 74 59 46 67 62 65 55 56 55 55 61 58
88 97 101 105 85 74 73 72 70 60 59 56 58 62 67 72 71 76 79 83 81 89 86 84 88 85 84 86 83 62 81 84 82 80 66 55 67 63 67 64 62 55 63
99 96 103 95 72 71 70 74 74 68 61 61 63 65 66 66 69 77 75 74 84 91 89 92 92 92 87 84 86 91 96 89 85 82 82 83 74 76 71 67 67 65 68
Wind_Direction
320 320 315 316 317 314 329 320 313 312 310 318 320 321 310 310 323 319 312 329 315 310 310 352 350 325 312 337 309 326 300 287 280 280 260 260 257 270 274 259 257 256 256
304 317 306 318 304 312 311 314 325 309 316 311 324 315 330 316 319 325 316 315 277 320 345 346 304 317 341 336 329 312 318 301 274 271 260 259 259 281 258 258 256 257 257
309 311 311 309 307 311 305 319 329 311 315 327 316 324 313 312 318 310 311 315 318 329 321 316 324 352 336 335 333 317 321 308 292 278 270 266 262 256 259 259 255 255 256
311 305 305 307 309 313 307 318 310 314 323 326 313 307 309 296 313 313 315 315 312 315 322 320 332 304 312 331 330 322 312 293 298 284 272 272 268 265 261 263 257 256 256
302 305 308 310 310 317 325 318 308 307 319 311 320 312 311 328 310 320 297 311 306 317 335 315 307 294 332 340 302 317 319 313 303 289 283 280 275 268 258 257 258 259 259
304 294 307 320 314 302 311 319 315 310 309 310 308 321 318 313 314 309 313 313 315 313 320 316 302 337 317 333 328 331 325 319 311 295 284 281 278 267 259 255 259 258 258
306 303 303 307 305 307 307 306 316 322 322 325 310 320 316 308 319 314 310 311 315 316 304 327 336 305 307 335 325 330 325 318 296 300 296 283 276 268 260 259 261 263 262
307 308 301 308 305 315 307 310 314 318 323 316 315 313 323 296 315 310 321 312 317 325 324 319 332 332 324 332 317 324 323 320 312 305 308 284 286 265 267 256 256 257 256
304 304 303 306 312 313 317 319 307 292 312 316 317 317 313 314 309 326 315 316 317 290 322 326 319 329 316 321 321 329 320 315 300 305 299 291 270 268 276 259 255 250 251
314 312 311 314 304 316 318 319 319 312 321 318 317 314 312 308 311 313 319 315 317 320 322 322 322 320 319 322 317 325 321 315 309 281 301 289 286 289 260 255 254 255 255
307 307 312 314 319 315 316 311 320 318 316 315 312 311 313 312 306 309 309 314 315 317 321 319 318 315 317 317 311 312 318 310 304 303 302 291 278 285 273 264 261 254 249
307 308 310 312 311 310 311 318 317 312 315 309 311 309 306 307 308 311 311 313 313 315 316 316 314 313 317 314 307 308 308 308 308 294 293 286 278 273 273 273 260 260 268
305 307 309 309 308 308 312 316 313 310 308 307 307 307 308 308 312 311 308 309 309 306 310 314 313 314 309 305 307 302 304 304 292 290 289 281 276 271 268 267 257 269 250
303 307 307 307 307 308 309 310 311 315 307 306 307 309 309 310 308 310 305 308 300 313 314 313 307 303 305 306 303 300 296 293 285 296 283 276 275 259 266 262 265 249 259
300 300 303 304 305 306 305 307 309 310 300 304 309 310 306 306 309 306 302 305 294 313 313 312 311 312 304 307 303 299 299 296 289 294 277 275 269 270 267 268 268 255 250
299 303 300 301 301 316 300 304 312 299 300 302 302 305 303 307 305 295 307 306 307 308 310 318 305 306 305 301 301 296 296 292 287 290 276 286 270 266 262 258 257 258 262
309 312 312 300 293 310 309 302 296 298 297 303 299 303 302 308 299 303 308 316 308 299 306 299 305 302 303 304 299 295 293 290 284 285 286 276 275 267 266 261 258 254 252
311 311 311 311 310 301 293 301 304 303 296 298 301 301 306 308 301 297 315 303 304 303 300 299 304 294 297 297 297 294 295 287 278 282 282 284 277 266 263 264 261 254 252
310 310 309 301 292 305 288 290 289 297 299 301 303 301 300 302 290 304 294 290 295 304 296 307 306 297 296 297 297 293 293 283 282 278 282 278 282 272 261 259 261 260 255
307 305 303 295 301 300 295 290 289 303 305 306 290 295 295 304 309 281 282 281 294 291 291 298 296 296 298 294 298 294 288 285 286 280 281 281 280 274 268 258 259 262 257
298 294 292 297 295 298 292 296 297 295 298 284 294 280 302 287 289 281 277 282 290 287 286 306 291 282 289 298 294 295 289 288 284 284 279 283 278 280 265 264 261 257 261
304 302 299 298 290 301 308 313 298 279 279 289 268 288 274 280 271 275 286 287 290 284 284 287 288 290 294 295 301 294 289 285 284 278 277 275 277 278 276 268 270 263 263
299 297 302 305 306 300 308 303 296 274 254 276 274 273 271 282 270 270 276 279 279 282 284 288 290 291 292 273 298 296 293 284 289 284 279 274 275 275 275 275 268 263 269
304 305 304 301 307 298 306 306 301 288 265 273 275 276 273 275 278 287 274 278 277 279 280 283 285 288 289 292 293 283 290 293 292 273 286 282 280 269 273 271 270 270 266
299 305 307 308 307 306 305 301 298 295 293 281 271 268 272 269 267 271 275 278 275 282 281 279 282 288 294 290 294 290 291 289 290 291 291 277 282 276 275 269 261 267 269
306 304 306 309 306 304 301 299 298 298 294 290 287 284 279 271 266 267 267 266 269 277 279 284 284 282 288 291 288 279 279 288 282 284 284 284 279 278 272 271 269 267 266